Location: *
(33.6842°N, 117.7925°W)
Time: 02:15:18
(UTC+00:00)

MSX - Pass Details

Date: 21 October 2019
Orbit: 894 x 906 km, 98.7° (Epoch: 17 November)

Event Time Altitude Azimuth Distance (km) Brightness Sun altitude
Rises 12:02:59 0° 10° (N) 3,513 7.1 -25.2°
Reaches altitude 10° 12:05:24 10° 8° (N) 2,570 6.3 -24.7°
Maximum altitude 12:11:05 71° 286° (WNW) 947 3.7 -23.5°
Enters shadow 12:15:12 19° 205° (SSW) 1,975 5.3 -22.6°
